| time (UTC) | temp F | wind direction | speed MPH | gust MPH | rain 1hr in | rain 24hr in | rain mn in | humidity % | barometer mb |
| 20260504034356 | 49 | 268 | 0.0 | 1.0 | 0.01 | 0.06 | 0.01 | 96 | 1009.0 |
| 20260504033631 | 49 | 268 | 0.0 | 1.0 | 0.01 | 0.06 | 0.01 | 96 | 1009.0 |
| 20260504033131 | 49 | 268 | 0.0 | 0.0 | 0.00 | 0.05 | 0.00 | 96 | 1009.1 |
| 20260504032603 | 49 | 268 | 0.0 | 0.0 | 0.00 | 0.05 | 0.00 | 96 | 1009.0 |
| 20260504032102 | 49 | 268 | 0.0 | 0.0 | 0.00 | 0.05 | 0.00 | 96 | 1008.9 |
| 20260504031530 | 50 | 268 | 0.0 | 0.0 | 0.00 | 0.05 | 0.00 | 96 | 1008.8 |
| 20260504031031 | 50 | 268 | 0.0 | 0.0 | 0.00 | 0.05 | 0.00 | 96 | 1008.9 |
| 20260504030503 | 50 | 268 | 0.0 | 0.0 | 0.00 | 0.05 | 0.00 | 96 | 1008.8 |
| 20260504025931 | 50 | 268 | 0.0 | 0.0 | 0.00 | 0.05 | 0.00 | 96 | 1008.8 |
| 20260504025432 | 50 | 268 | 0.0 | 0.0 | 0.00 | 0.05 | 0.00 | 96 | 1008.9 |
| 20260504024930 | 50 | 268 | 0.0 | 0.0 | 0.00 | 0.05 | 0.00 | 96 | 1008.9 |
| 20260504024426 | 50 | 268 | 0.0 | 0.0 | 0.00 | 0.05 | 0.00 | 96 | 1008.9 |
| 20260504023924 | 50 | 268 | 0.0 | 0.0 | 0.00 | 0.05 | 0.00 | 96 | 1008.9 |
| 20260504023412 | 51 | 268 | 0.0 | 0.0 | 0.00 | 0.05 | 0.00 | 96 | 1008.9 |
| 20260504022904 | 51 | 268 | 0.0 | 0.0 | 0.00 | 0.05 | 0.00 | 96 | 1008.9 |
| 20260504022404 | 51 | 268 | 0.0 | 0.0 | 0.00 | 0.05 | 0.00 | 96 | 1008.9 |
| 20260504021903 | 51 | 268 | 0.0 | 0.0 | 0.00 | 0.05 | 0.00 | 96 | 1008.8 |
| 20260504021402 | 51 | 268 | 0.0 | 0.0 | 0.00 | 0.05 | 0.00 | 96 | 1008.8 |
| 20260504020834 | 51 | 268 | 0.0 | 0.0 | 0.00 | 0.05 | 0.00 | 96 | 1008.8 |
| 20260504020332 | 51 | 268 | 0.0 | 0.0 | 0.00 | 0.05 | 0.00 | 96 | 1008.8 |
| 20260504015825 | 51 | 268 | 0.0 | 0.0 | 0.00 | 0.05 | 0.00 | 96 | 1008.8 |
| 20260504015305 | 51 | 268 | 0.0 | 0.0 | 0.00 | 0.05 | 0.00 | 96 | 1008.8 |
| 20260504014804 | 51 | 268 | 0.0 | 0.0 | 0.00 | 0.05 | 0.00 | 96 | 1008.9 |
| 20260504014232 | 51 | 268 | 0.0 | 0.0 | 0.00 | 0.05 | 0.00 | 95 | 1008.8 |
| 20260504013732 | 51 | 268 | 0.0 | 0.0 | 0.00 | 0.05 | 0.00 | 95 | 1008.8 |
| 20260504013223 | 51 | 268 | 0.0 | 0.0 | 0.00 | 0.05 | 0.00 | 95 | 1008.9 |
| 20260504012713 | 52 | 268 | 0.0 | 0.0 | 0.00 | 0.05 | 0.00 | 96 | 1008.9 |
| 20260504012204 | 52 | 268 | 0.0 | 0.0 | 0.00 | 0.05 | 0.00 | 96 | 1008.9 |
| 20260504011705 | 52 | 268 | 0.0 | 0.0 | 0.00 | 0.05 | 0.00 | 96 | 1008.9 |
| 20260504011141 | 52 | 268 | 0.0 | 0.0 | 0.00 | 0.05 | 0.00 | 96 | 1008.8 |
| 20260504010630 | 52 | 268 | 0.0 | 0.0 | 0.00 | 0.05 | 0.00 | 95 | 1008.8 |
| 20260504010350 | 51 | 268 | 0.0 | 0.0 | 0.00 | 0.05 | 0.00 | 95 | 1008.9 |
| 20260504010058 | 51 | 268 | 0.0 | 0.0 | 0.00 | 0.05 | 0.00 | 95 | 1008.9 |
| 20260504005455 | 52 | 268 | 0.0 | 0.0 | 0.00 | 0.05 | 0.00 | 94 | 1008.8 |
| 20260504005215 | 51 | 268 | 0.0 | 0.0 | 0.00 | 0.05 | 0.00 | 95 | 1008.9 |
| 20260504004727 | 52 | 268 | 0.0 | 0.0 | 0.00 | 0.05 | 0.00 | 94 | 1008.9 |
| 20260504003503 | 52 | 268 | 0.0 | 0.0 | 0.00 | 0.05 | 0.00 | 94 | 1008.9 |
| 20260504003219 | 52 | 268 | 0.0 | 0.0 | 0.00 | 0.05 | 0.00 | 94 | 1008.8 |
| 20260504002442 | 52 | 268 | 0.0 | 0.0 | 0.00 | 0.05 | 0.00 | 94 | 1008.8 |
| 20260504001932 | 52 | 268 | 0.0 | 0.0 | 0.00 | 0.05 | 0.00 | 94 | 1008.8 |
| 20260504001432 | 52 | 268 | 0.0 | 0.0 | 0.00 | 0.05 | 0.00 | 94 | 1008.8 |
| 20260504001154 | 53 | 268 | 0.0 | 0.0 | 0.00 | 0.05 | 0.00 | 94 | 1008.8 |
| 20260504000431 | 53 | 268 | 0.0 | 0.0 | 0.00 | 0.05 | 0.00 | 94 | 1008.9 |
| 20260504000152 | 53 | 268 | 0.0 | 0.0 | 0.00 | 0.05 | 0.00 | 94 | 1008.9 |
| 20260503235429 | 53 | 268 | 0.0 | 0.0 | 0.00 | 0.05 | 0.00 | 94 | 1008.9 |
| 20260503234930 | 53 | 268 | 0.0 | 0.0 | 0.00 | 0.05 | 0.00 | 93 | 1008.9 |
| 20260503234430 | 53 | 268 | 0.0 | 0.0 | 0.00 | 0.05 | 0.00 | 94 | 1008.9 |
| 20260503233931 | 53 | 268 | 0.0 | 0.0 | 0.00 | 0.05 | 0.00 | 93 | 1008.9 |
| 20260503233428 | 53 | 268 | 0.0 | 0.0 | 0.00 | 0.05 | 0.00 | 93 | 1008.9 |
| 20260503232923 | 53 | 268 | 0.0 | 0.0 | 0.00 | 0.05 | 0.00 | 93 | 1009.0 |
| 20260503232403 | 54 | 268 | 0.0 | 0.0 | 0.00 | 0.05 | 0.00 | 93 | 1008.9 |
| 20260503231902 | 54 | 268 | 0.0 | 0.0 | 0.00 | 0.05 | 0.00 | 93 | 1009.0 |
| 20260503231331 | 54 | 268 | 0.0 | 0.0 | 0.00 | 0.05 | 0.00 | 93 | 1009.0 |
| 20260503230830 | 54 | 268 | 0.0 | 0.0 | 0.00 | 0.05 | 0.00 | 93 | 1008.9 |
| 20260503230332 | 54 | 268 | 0.0 | 0.0 | 0.00 | 0.05 | 0.00 | 92 | 1008.9 |
| 20260503225835 | 55 | 268 | 0.0 | 0.0 | 0.00 | 0.05 | 0.00 | 92 | 1009.0 |
| 20260503225327 | 55 | 268 | 0.0 | 0.0 | 0.00 | 0.05 | 0.00 | 92 | 1009.0 |
| 20260503225034 | 55 | 268 | 0.0 | 0.0 | 0.00 | 0.05 | 0.00 | 92 | 1009.0 |
| 20260503224308 | 55 | 268 | 0.0 | 0.0 | 0.00 | 0.05 | 0.00 | 91 | 1009.0 |
| 20260503223732 | 56 | 268 | 0.0 | 0.0 | 0.00 | 0.05 | 0.00 | 91 | 1009.0 |
| 20260503223457 | 56 | 268 | 0.0 | 0.0 | 0.00 | 0.05 | 0.00 | 91 | 1009.0 |
| 20260503223221 | 56 | 268 | 0.0 | 1.0 | 0.00 | 0.05 | 0.00 | 90 | 1009.0 |
| 20260503222938 | 56 | 268 | 0.0 | 0.0 | 0.00 | 0.05 | 0.00 | 91 | 1009.0 |
| 20260503221728 | 57 | 276 | 0.0 | 0.0 | 0.00 | 0.05 | 0.00 | 90 | 1009.0 |
| 20260503221227 | 57 | 276 | 0.0 | 0.0 | 0.00 | 0.06 | 0.00 | 90 | 1009.0 |
| 20260503220708 | 57 | 276 | 0.0 | 1.0 | 0.00 | 0.06 | 0.00 | 90 | 1009.0 |
| 20260503220203 | 57 | 276 | 0.0 | 3.0 | 0.00 | 0.06 | 0.00 | 90 | 1009.0 |
| 20260503220147 | 57 | 210 | 0.0 | 4.0 | 0.00 | 0.06 | 0.06 | 89 | 1008.9 |
| 20260503215131 | 58 | 189 | 0.0 | 4.0 | 0.00 | 0.06 | 0.06 | 89 | 1008.9 |
| 20260503214630 | 58 | 278 | 1.0 | 4.0 | 0.00 | 0.06 | 0.06 | 89 | 1009.0 |
| 20260503214131 | 58 | 265 | 1.0 | 4.0 | 0.00 | 0.06 | 0.06 | 89 | 1009.2 |
| 20260503213846 | 58 | 266 | 1.0 | 4.0 | 0.00 | 0.06 | 0.06 | 89 | 1009.1 |
| 20260503213546 | 58 | 198 | 1.0 | 4.0 | 0.00 | 0.06 | 0.06 | 89 | 1009.1 |
| 20260503212602 | 58 | 243 | 1.0 | 2.0 | 0.00 | 0.06 | 0.06 | 88 | 1009.0 |
| 20260503212104 | 58 | 249 | 1.0 | 6.0 | 0.00 | 0.06 | 0.06 | 89 | 1009.0 |
| 20260503211532 | 58 | 144 | 0.0 | 4.0 | 0.00 | 0.06 | 0.06 | 88 | 1009.0 |
| 20260503211030 | 58 | 297 | 1.0 | 3.0 | 0.00 | 0.06 | 0.06 | 88 | 1009.0 |
| 20260503210530 | 59 | 281 | 1.0 | 4.0 | 0.00 | 0.06 | 0.06 | 88 | 1009.0 |
| 20260503210031 | 59 | 278 | 1.0 | 4.0 | 0.00 | 0.06 | 0.06 | 88 | 1008.9 |
| 20260503205756 | 59 | 359 | 1.0 | 2.0 | 0.00 | 0.06 | 0.06 | 88 | 1008.9 |
| 20260503205030 | 59 | 253 | 1.0 | 3.0 | 0.00 | 0.06 | 0.06 | 87 | 1008.9 |
| 20260503204527 | 59 | 289 | 1.0 | 2.0 | 0.00 | 0.06 | 0.06 | 87 | 1008.8 |
| 20260503204003 | 60 | 170 | 1.0 | 4.0 | 0.00 | 0.06 | 0.06 | 87 | 1008.8 |
| 20260503203432 | 60 | 272 | 1.0 | 3.0 | 0.00 | 0.06 | 0.06 | 87 | 1008.9 |
| 20260503202931 | 60 | 190 | 1.0 | 3.0 | 0.00 | 0.06 | 0.06 | 87 | 1008.9 |
| 20260503202430 | 60 | 241 | 1.0 | 3.0 | 0.00 | 0.06 | 0.06 | 87 | 1009.0 |
| 20260503201925 | 60 | 254 | 1.0 | 3.0 | 0.00 | 0.06 | 0.06 | 87 | 1009.0 |
| 20260503201422 | 60 | 229 | 1.0 | 4.0 | 0.00 | 0.06 | 0.06 | 87 | 1009.1 |
| 20260503200904 | 59 | 262 | 1.0 | 4.0 | 0.00 | 0.06 | 0.06 | 87 | 1009.1 |
| 20260503200402 | 59 | 208 | 1.0 | 3.0 | 0.00 | 0.06 | 0.06 | 87 | 1009.1 |
| 20260503195903 | 59 | 292 | 0.0 | 3.0 | 0.00 | 0.06 | 0.06 | 87 | 1009.1 |
| 20260503195333 | 59 | 217 | 1.0 | 3.0 | 0.00 | 0.06 | 0.06 | 87 | 1009.1 |
| 20260503194830 | 59 | 294 | 1.0 | 3.0 | 0.00 | 0.06 | 0.06 | 87 | 1009.1 |
| 20260503194303 | 59 | 290 | 0.0 | 3.0 | 0.00 | 0.06 | 0.06 | 87 | 1009.0 |
| 20260503193802 | 60 | 210 | 0.0 | 4.0 | 0.00 | 0.06 | 0.06 | 87 | 1009.0 |
| 20260503193232 | 60 | 275 | 1.0 | 4.0 | 0.00 | 0.06 | 0.06 | 87 | 1008.9 |
| 20260503192956 | 60 | 225 | 0.0 | 2.0 | 0.00 | 0.06 | 0.06 | 86 | 1008.8 |
| 20260503192231 | 60 | 283 | 0.0 | 4.0 | 0.00 | 0.06 | 0.06 | 86 | 1008.7 |
| 20260503191730 | 60 | 252 | 1.0 | 4.0 | 0.00 | 0.06 | 0.06 | 86 | 1008.7 |
| 20260503191453 | 60 | 265 | 1.0 | 4.0 | 0.00 | 0.06 | 0.06 | 86 | 1008.6 |
| 20260503190955 | 60 | 318 | 1.0 | 4.0 | 0.00 | 0.06 | 0.06 | 86 | 1008.6 |
| 20260503190236 | 60 | 252 | 1.0 | 3.0 | 0.00 | 0.06 | 0.06 | 86 | 1008.6 |
| 20260503185703 | 61 | 251 | 1.0 | 2.0 | 0.00 | 0.07 | 0.06 | 86 | 1008.5 |
| 20260503185409 | 61 | 205 | 1.0 | 3.0 | 0.00 | 0.07 | 0.06 | 86 | 1008.5 |
| 20260503184636 | 61 | 278 | 1.0 | 3.0 | 0.00 | 0.07 | 0.06 | 85 | 1008.4 |
| 20260503184131 | 61 | 229 | 1.0 | 4.0 | 0.00 | 0.08 | 0.06 | 85 | 1008.4 |
| 20260503183632 | 61 | 214 | 1.0 | 4.0 | 0.00 | 0.08 | 0.06 | 85 | 1008.4 |
| 20260503183138 | 61 | 267 | 1.0 | 4.0 | 0.00 | 0.08 | 0.06 | 85 | 1008.4 |
| 20260503182636 | 61 | 288 | 1.0 | 4.0 | 0.00 | 0.08 | 0.06 | 85 | 1008.4 |
| 20260503182132 | 61 | 291 | 1.0 | 6.0 | 0.00 | 0.08 | 0.06 | 85 | 1008.4 |
| 20260503181629 | 61 | 213 | 2.0 | 6.0 | 0.00 | 0.08 | 0.06 | 84 | 1008.4 |
| 20260503181130 | 62 | 266 | 2.0 | 5.0 | 0.00 | 0.09 | 0.06 | 84 | 1008.3 |
| 20260503180630 | 62 | 302 | 1.0 | 5.0 | 0.00 | 0.09 | 0.06 | 85 | 1008.3 |
| 20260503180103 | 62 | 281 | 1.0 | 5.0 | 0.00 | 0.10 | 0.06 | 85 | 1008.3 |
| 20260503175602 | 62 | 283 | 1.0 | 5.0 | 0.00 | 0.10 | 0.06 | 86 | 1008.3 |
| 20260503175325 | 62 | 193 | 1.0 | 4.0 | 0.00 | 0.11 | 0.06 | 85 | 1008.3 |
| 20260503174533 | 62 | 263 | 1.0 | 4.0 | 0.00 | 0.11 | 0.06 | 85 | 1008.2 |
| 20260503174031 | 62 | 4 | 1.0 | 4.0 | 0.00 | 0.12 | 0.06 | 85 | 1008.2 |
| 20260503173530 | 62 | 293 | 2.0 | 7.0 | 0.00 | 0.13 | 0.06 | 85 | 1008.3 |
| 20260503173030 | 62 | 338 | 2.0 | 7.0 | 0.00 | 0.20 | 0.06 | 85 | 1008.3 |
| 20260503172532 | 62 | 268 | 2.0 | 6.0 | 0.00 | 0.28 | 0.06 | 85 | 1008.2 |
| 20260503172030 | 62 | 4 | 2.0 | 5.0 | 0.00 | 0.28 | 0.06 | 84 | 1008.2 |
| 20260503171530 | 63 | 296 | 2.0 | 6.0 | 0.00 | 0.28 | 0.06 | 84 | 1008.2 |
| 20260503171003 | 63 | 318 | 2.0 | 6.0 | 0.00 | 0.28 | 0.06 | 84 | 1008.2 |
| 20260503170516 | 63 | 283 | 2.0 | 6.0 | 0.00 | 0.28 | 0.06 | 83 | 1008.2 |
| 20260503150703 | 60 | 260 | 2.0 | 8.0 | 0.01 | 0.39 | 0.06 | 93 | 1008.5 |
| 20260503150135 | 60 | 209 | 2.0 | 4.0 | 0.01 | 0.39 | 0.06 | 93 | 1008.5 |
| 20260503131121 | 59 | 264 | 2.0 | 6.0 | 0.01 | 0.35 | 0.02 | 88 | 1009.1 |
| 20260503130401 | 59 | 294 | 2.0 | 6.0 | 0.01 | 0.35 | 0.02 | 87 | 1009.1 |
| 20260503110503 | 63 | 240 | 2.0 | 9.0 | 0.00 | 0.35 | 0.01 | 70 | 1009.1 |
| 20260503100222 | 64 | 217 | 2.0 | 9.0 | 0.00 | 0.35 | 0.01 | 66 | 1008.7 |
| 20260503090256 | 63 | 153 | 1.0 | 3.0 | 0.00 | 0.35 | 0.01 | 75 | 1008.4 |
| 20260503080930 | 64 | 81 | 2.0 | 4.0 | 0.00 | 0.35 | 0.01 | 74 | 1008.2 |
| 20260503080431 | 64 | 225 | 2.0 | 9.0 | 0.00 | 0.35 | 0.01 | 71 | 1008.3 |
| 20260503072904 | 63 | 140 | 1.0 | 6.0 | 0.00 | 0.35 | 0.01 | 76 | 1008.1 |
| 20260503072402 | 63 | 253 | 0.0 | 5.0 | 0.00 | 0.35 | 0.01 | 79 | 1008.1 |
| 20260503071831 | 62 | 302 | 0.0 | 4.0 | 0.00 | 0.35 | 0.01 | 81 | 1008.2 |
| 20260503071331 | 62 | 230 | 0.0 | 2.0 | 0.00 | 0.35 | 0.01 | 84 | 1008.2 |
| 20260503070833 | 61 | 98 | 0.0 | 1.0 | 0.00 | 0.35 | 0.01 | 87 | 1008.2 |
| 20260503070325 | 60 | 185 | 0.0 | 2.0 | 0.00 | 0.35 | 0.01 | 91 | 1008.2 |
| 20260503060230 | 57 | 178 | 0.0 | 0.0 | 0.00 | 0.35 | 0.01 | 98 | 1008.2 |
| 20260503054731 | 56 | 178 | 0.0 | 0.0 | 0.00 | 0.35 | 0.01 | 98 | 1008.3 |
| 20260503054413 | 55 | 178 | 0.0 | 0.0 | 0.00 | 0.35 | 0.01 | 98 | 1008.3 |
| 20260503054404 | 56 | 178 | 0.0 | 0.0 | 0.00 | 0.35 | 0.01 | 98 | 1008.2 |
| 20260503053204 | 55 | 178 | 0.0 | 0.0 | 0.00 | 0.35 | 0.01 | 98 | 1008.3 |
| 20260503052632 | 55 | 178 | 0.0 | 0.0 | 0.00 | 0.35 | 0.01 | 98 | 1008.3 |
| 20260503052359 | 54 | 178 | 0.0 | 0.0 | 0.00 | 0.35 | 0.01 | 98 | 1008.3 |
| 20260503051604 | 54 | 178 | 0.0 | 0.0 | 0.00 | 0.35 | 0.01 | 98 | 1008.3 |
| 20260503051031 | 54 | 178 | 0.0 | 0.0 | 0.00 | 0.35 | 0.01 | 98 | 1008.4 |
| 20260503050806 | 53 | 178 | 0.0 | 0.0 | 0.00 | 0.35 | 0.01 | 98 | 1008.3 |
| 20260503050457 | 53 | 178 | 0.0 | 0.0 | 0.00 | 0.35 | 0.01 | 98 | 1008.4 |
| 20260503045503 | 53 | 178 | 0.0 | 0.0 | 0.00 | 0.35 | 0.01 | 98 | 1008.4 |
| 20260503044933 | 53 | 178 | 0.0 | 0.0 | 0.00 | 0.35 | 0.01 | 97 | 1008.4 |
| 20260503044433 | 53 | 178 | 0.0 | 0.0 | 0.00 | 0.35 | 0.01 | 97 | 1008.5 |
| 20260503044154 | 53 | 178 | 0.0 | 0.0 | 0.00 | 0.35 | 0.01 | 97 | 1008.5 |
| 20260503043917 | 53 | 178 | 0.0 | 0.0 | 0.00 | 0.35 | 0.01 | 97 | 1008.5 |
| 20260503042930 | 53 | 178 | 0.0 | 0.0 | 0.00 | 0.35 | 0.01 | 97 | 1008.4 |
| 20260503042431 | 53 | 178 | 0.0 | 0.0 | 0.00 | 0.35 | 0.01 | 97 | 1008.4 |
| 20260503041931 | 53 | 178 | 0.0 | 0.0 | 0.00 | 0.35 | 0.01 | 97 | 1008.4 |
| 20260503041430 | 53 | 178 | 0.0 | 0.0 | 0.00 | 0.35 | 0.01 | 97 | 1008.4 |
| 20260503040932 | 53 | 178 | 0.0 | 0.0 | 0.00 | 0.35 | 0.01 | 97 | 1008.4 |
| 20260503040430 | 53 | 178 | 0.0 | 0.0 | 0.00 | 0.35 | 0.01 | 97 | 1008.4 |
| 20260503035930 | 53 | 178 | 0.0 | 0.0 | 0.00 | 0.35 | 0.01 | 97 | 1008.4 |
| 20260503035435 | 53 | 178 | 0.0 | 0.0 | 0.00 | 0.35 | 0.01 | 97 | 1008.4 |
| 20260503034932 | 53 | 178 | 0.0 | 0.0 | 0.00 | 0.35 | 0.01 | 97 | 1008.4 |